Weather History for KBIS - November, 2014

Change the Weather History Date:

Thursday, November 20, 2014

  Actual Average Record
Temperature  
Mean Temperature 17 °F 27 °F  
Max Temperature 22 °F 37 °F 69 °F (1890)
Min Temperature 11 °F 17 °F -16 °F (1875)
Degree Days  
Heating Degree Days 48 38  
Month to date heating degree days 818 662  
Since 1 July heating degree days 1594 1574  
Cooling Degree Days 0 0  
Month to date cooling degree days 0 0  
Year to date cooling degree days 457 520  
Moisture  
Dew Point 10 °F    
Average Humidity 75    
Maximum Humidity 88    
Minimum Humidity 62    
Precipitation  
Precipitation T in 0.02 in 0.70 in (1930)
Month to date precipitation 0.32 0.53  
Year to date precipitation 13.53 17.18  
Snow  
Snow T in 0.30 in 8.60 in (1930)
Month to date snowfall 4.5 5.8  
Since 1 July snowfall 4.5 8.2  
Since 1 September snowfall 4.5 8.2  
Snow Depth 3.00 in    
Sea Level Pressure  
Sea Level Pressure 30.13 in    
Wind  
Wind Speed 6 mph (SSW)    
Max Wind Speed 14 mph    
Max Gust Speed 17 mph    
Visibility 10 miles    
Events Snow    
T = Trace of Precipitation, MM = Missing Value Source: NWS Daily Summary

Daily Weather History Graph

Daily Weather History Graph

Search for Another Location

Airport or City:

Trip Planner

Search our weather history database for the weather conditions in past years. The results will help you decide how hot, cold, wet, or windy it might be!

Date:

Astronomy

Nov. 20, 2014 Rise Set
Actual Time 7:52 AM CST 5:04 PM CST
Civil Twilight 7:19 AM CST 5:37 PM CST
Nautical Twilight 6:42 AM CST 6:14 PM CST
Astronomical Twilight 6:06 AM CST 6:50 PM CST
Moon 5:41 AM CST (11/20) 4:15 PM CST (11/20)
Length of Visible Light 10h 18m
Length of Day
9h 11m
Waning Crescent, 4% of the Moon is Illuminated
Nov 20
Waning Crescent
Nov 22
New
Nov 29
First Quarter
Dec 6
Full
Dec 14
Last Quarter

Hourly Weather History & Observations

Time (CST) Temp. Windchill Dew Point Humidity Pressure Visibility Wind Dir Wind Speed Gust Speed Precip Events Conditions
12:08 AM 12.0 °F - 8.1 °F 84% 30.10 in 10.0 mi Calm Calm - N/A   Mostly Cloudy
12:52 AM 12.9 °F 5.2 °F 8.1 °F 81% 30.21 in 10.0 mi West 4.6 mph - N/A   Overcast
1:52 AM 15.1 °F 6.4 °F 9.0 °F 77% 30.20 in 10.0 mi WNW 5.8 mph - N/A   Overcast
2:52 AM 15.1 °F 6.4 °F 9.0 °F 77% 30.20 in 10.0 mi NW 5.8 mph - N/A   Overcast
3:52 AM 15.1 °F 5.2 °F 8.1 °F 74% 30.19 in 10.0 mi WNW 6.9 mph - N/A   Overcast
4:52 AM 15.1 °F 7.7 °F 9.0 °F 77% 30.19 in 10.0 mi WNW 4.6 mph - N/A   Overcast
5:52 AM 15.1 °F - 10.0 °F 80% 30.19 in 8.0 mi Calm Calm - 0.00 in Snow Light Snow
6:52 AM 15.1 °F 9.4 °F 10.0 °F 80% 30.19 in 6.0 mi SW 3.5 mph - 0.00 in Snow Light Snow
7:52 AM 15.1 °F 9.4 °F 10.9 °F 84% 30.20 in 9.0 mi West 3.5 mph - 0.00 in   Overcast
8:52 AM 15.1 °F - 9.0 °F 77% 30.21 in 9.0 mi Calm Calm - N/A   Overcast
9:52 AM 17.1 °F 11.7 °F 9.0 °F 71% 30.21 in 10.0 mi WSW 3.5 mph - N/A   Overcast
10:52 AM 19.0 °F 11.1 °F 8.1 °F 62% 30.21 in 10.0 mi SW 5.8 mph - N/A   Scattered Clouds
11:52 AM 19.9 °F 12.1 °F 8.1 °F 60% 30.20 in 10.0 mi SW 5.8 mph - N/A   Partly Cloudy
12:52 PM 19.9 °F 10.1 °F 9.0 °F 62% 30.18 in 10.0 mi SW 8.1 mph - N/A   Clear
1:52 PM 21.0 °F 10.6 °F 10.0 °F 63% 30.16 in 10.0 mi SW 9.2 mph - N/A   Clear
2:52 PM 21.9 °F 11.7 °F 10.0 °F 60% 30.14 in 10.0 mi South 9.2 mph - N/A   Clear
3:52 PM 21.0 °F 8.6 °F 10.0 °F 63% 30.12 in 10.0 mi South 12.7 mph - N/A   Clear
4:52 PM 19.0 °F 10.0 °F 9.0 °F 65% 30.13 in 10.0 mi SSE 6.9 mph - N/A   Clear
5:52 PM 15.1 °F 4.2 °F 8.1 °F 74% 30.11 in 10.0 mi South 8.1 mph - N/A   Clear
6:31 PM 15.1 °F 5.2 °F 9.0 °F 77% 30.00 in 10.0 mi SE 6.9 mph - N/A   Mostly Cloudy
6:52 PM 15.1 °F 4.2 °F 10.9 °F 84% 30.09 in 10.0 mi ESE 8.1 mph - N/A   Overcast
7:19 PM 12.0 °F 1.5 °F 9.0 °F 88% 29.99 in 10.0 mi ESE 6.9 mph - N/A   Scattered Clouds
7:52 PM 12.9 °F -0.2 °F 9.0 °F 84% 30.08 in 10.0 mi ESE 10.4 mph - N/A   Clear
8:52 PM 12.0 °F -0.4 °F 6.1 °F 77% 30.07 in 10.0 mi SE 9.2 mph - N/A   Clear
9:52 PM 17.1 °F 6.6 °F 14.0 °F 88% 30.04 in 10.0 mi SSE 8.1 mph - N/A   Overcast
10:02 PM 17.1 °F 6.6 °F 15.1 °F 92% 29.94 in 10.0 mi South 8.1 mph - N/A   Overcast
10:52 PM 15.1 °F 9.4 °F 12.9 °F 91% 30.02 in 10.0 mi SSE 3.5 mph - N/A   Scattered Clouds
11:52 PM 17.1 °F 10.0 °F 16.0 °F 96% 30.01 in 9.0 mi SE 4.6 mph - N/A   Scattered Clouds